This demonstration page uses our WeatherBlox Daily Observations layout. Learn more.

Left ArrowRight Arrow

41.86663, -103.66717

Hourly Observations for January 31, 2017

Temp ( °F °C ) Dew Point ( °F °C ) Humidity (%) Winds ( mph kmh ) Pressure ( in mb ) Visibility ( mi km ) Precip ( " mm )
12:53 am 00:53 Clear 32 0 24 -4.4 73 73 ENE 10 17 29.96 1014 10 16 0.00 0.00
1:53 am 01:53 Mostly Clear 31 -0.6 23 -5 72 72 SE 12 19 29.93 1014 10 16 0.00 0.00
2:53 am 02:53 Mostly Cloudy 31 -0.6 23 -5 72 72 E 12 19 29.96 1015 10 16 0.00 0.00
3:53 am 03:53 Mostly Cloudy 32 0 23 -5 69 69 ESE 9 15 29.95 1014 10 16 0.00 0.00
4:53 am 04:53 Clear 31 -0.6 22 -5.6 69 69 E 12 19 29.97 1015 10 16 0.00 0.00
5:53 am 05:53 Clear 31 -0.6 22 -5.6 69 69 ESE 12 19 29.96 1015 10 16 0.00 0.00
6:53 am 06:53 Clear 30 -1.1 23 -5 75 75 ESE 6 9 29.95 1014 10 16 0.00 0.00
7:53 am 07:53 Sunny 31 -0.6 22 -5.6 69 69 E 8 13 29.97 1015 10 16 0.00 0.00
8:53 am 08:53 Sunny 31 -0.6 23 -5 72 72 ESE 12 19 29.95 1014 10 16 0.00 0.00
9:53 am 09:53 Sunny 32 0 24 -4.4 73 73 ESE 10 17 29.96 1014 10 16 0.00 0.00
10:53 am 10:53 Sunny 34 1.1 26 -3.3 73 73 E 8 13 29.95 1014 10 16 0.00 0.00
11:53 am 11:53 Sunny 36 2.2 26 -3.3 67 67 ESE 6 9 29.91 1013 10 16 0.00 0.00
12:53 pm 12:53 Sunny 37 2.8 28 -2.2 70 70 ESE 6 9 29.86 1011 10 16 0.00 0.00
1:53 pm 13:53 Sunny 38 3.3 28 -2.2 68 68 ESE 6 9 29.85 1011 10 16 0.00 0.00
2:53 pm 14:53 Sunny 40 4.4 28 -2.2 63 63 ESE 3 6 29.87 1012 10 16 0.00 0.00
3:53 pm 15:53 Sunny 41 5 27 -2.8 57 57 N 14 22 29.90 1013 10 16 0.00 0.00
4:53 pm 16:53 Sunny 35 1.7 25 -3.9 67 67 NNE 10 17 29.96 1015 10 16 0.00 0.00
5:53 pm 17:53 Clear 32 0 26 -3.3 79 79 NE 14 22 30.02 1017 10 16 0.00 0.00
6:53 pm 18:53 Partly Cloudy 31 -0.6 25 -3.9 79 79 ENE 13 20 30.06 1018 10 16 0.00 0.00
7:01 pm 19:01 Mostly Cloudy 31 -0.6 24 -4.4 76 76 ENE 14 22 30.12 1020 10 16 0.00 0.00
7:11 pm 19:11 Mostly Cloudy 30 -1.1 24 -4.4 79 79 ENE 16 26 30.12 1020 10 16 0.00 0.00
7:50 pm 19:50 Cloudy 30 -1 25 -4 80 80 NE 14 22 30.12 1020 10 16 0.00 0.00
7:53 pm 19:53 Cloudy 30 -1.1 25 -3.9 82 82 NE 17 28 30.08 1019 10 16 0.00 0.00
8:23 pm 20:23 Cloudy 28 -2.2 24 -4.4 85 85 NE 17 28 30.18 1022 10 16 0.00 0.00
8:53 pm 20:53 Cloudy 27 -2.8 23 -5 85 85 NE 15 24 30.13 1020 10 16 0.00 0.00
9:20 pm 21:20 Cloudy 27 -3 21 -6 80 80 NE 12 19 30.24 1024 10 16 0.00 0.00
9:53 pm 21:53 Cloudy 27 -2.8 21 -6.1 78 78 ENE 16 26 30.13 1020 10 16 0.00 0.00
10:53 pm 22:53 Cloudy 27 -2.8 21 -6.1 78 78 ENE 13 20 30.14 1021 10 16 0.00 0.00
11:20 pm 23:20 Cloudy 27 -3 21 -6 80 80 ENE 14 22 30.24 1024 10 16 0.00 0.00
11:34 pm 23:34 Cloudy 27 -3 21 -6 80 80 ENE 13 20 30.24 1024 10 16 0.00 0.00
11:53 pm 23:53 Cloudy 26 -3.3 21 -6.1 81 81 E 12 19 30.14 1021 10 16 0.00 0.00

Powered by AerisWeather